This is the latest recevied weather packets stored in our database for station/object VK4RM-13. If no packets are shown the sender has not sent any weather packets the latest 1 day(s).
| Time | Temp. | Humidity | Pressure | Rain* | Wind** | Luminosity | Snow |
|---|---|---|---|---|---|---|---|
| 1778058395 | 20.56° C | 93% | 994.9 hPa | 0 mm | 0 m/s | - | - |
| 1778057795 | 20.56° C | 93% | 994.7 hPa | 0 mm | 0 m/s | - | - |
| 1778057196 | 20.56° C | 93% | 994.6 hPa | 0 mm | 0 m/s | - | - |
| 1778056595 | 20.56° C | 93% | 994.5 hPa | 0 mm | 0 m/s | - | - |
| 1778055995 | 20.56° C | 93% | 994.4 hPa | 0 mm | 0 m/s | - | - |
| 1778055395 | 20.56° C | 92% | 994.3 hPa | 0 mm | 0 m/s | - | - |
| 1778054795 | 20.56° C | 92% | 994.2 hPa | 0 mm | 0 m/s | - | - |
| 1778054195 | 21.11° C | 92% | 994.1 hPa | 0 mm | 0 m/s | - | - |
| 1778053595 | 21.11° C | 92% | 994.1 hPa | 0 mm | 0 m/s | - | - |
| 1778052995 | 21.11° C | 92% | 994.2 hPa | 0 mm | 0 m/s | - | - |
| 1778052395 | 21.67° C | 92% | 994 hPa | 0 mm | 0 m/s | - | - |
| 1778051795 | 21.67° C | 92% | 994 hPa | 0 mm | 0 m/s | - | - |
| 1778051195 | 21.67° C | 92% | 993.8 hPa | 0 mm | 0 m/s | - | - |
| 1778050596 | 21.67° C | 92% | 993.8 hPa | 0 mm | 0 m/s | - | - |
| 1778049996 | 22.22° C | 91% | 993.7 hPa | 0 mm | 0 m/s | - | - |
| 1778049396 | 22.22° C | 91% | 993.6 hPa | 0.76 mm | 0 m/s | - | - |
| 1778048796 | 22.22° C | 90% | 993.5 hPa | 0.76 mm | 0 m/s | - | - |
| 1778048196 | 22.78° C | 89% | 993.5 hPa | 0.76 mm | 0 m/s | - | - |
| 1778047596 | 22.78° C | 87% | 993.5 hPa | 0.76 mm | 0 m/s | - | - |
| 1778046996 | 23.33° C | 85% | 993.5 hPa | 0.76 mm | 0.45 m/s, 44° | - | - |
| 1778046396 | 24.44° C | 79% | 993.4 hPa | 0.76 mm | 0.45 m/s, 44° | - | - |
| 1778045796 | 25.56° C | 75% | 993.3 hPa | 0 mm | 0 m/s | - | - |
| 1778045196 | 26.11° C | 72% | 993.2 hPa | 0 mm | 0 m/s | - | - |
| 1778044596 | 26.11° C | 74% | 993.3 hPa | 0 mm | 0 m/s | - | - |
| 1778043996 | 26.11° C | 72% | 993.3 hPa | 0 mm | 0 m/s | - | - |
* Rain latest hour (hover to see other rain measurements)
** Current wind speed in m/s (hover to see current wind gust speed)